Flag for Bahrain Weather past 2 weeks in Riffa, Bahrain

Now
79 °F

Passing clouds.


Feels Like: 79 °F
Forecast: 66 / 82 °F
Wind: 15 mph from North

Location: Bahrain International Airport

Current Time: Mar 28, 2015 at 3:39:48 PM

Latest Report: Mar 28, 2015 at 2:00 PM


Visibility: N/A

Pressure: 29.98 "Hg

Humidity: 45%

Dew point: 55 °F

Location of RiffaLocation

Historic Weather in Riffa — Graph

°F

Riffa temperature yesterday

Maximum temperature yesterday: 81 °F (at 12:00 PM)
Minimum temperature yesterday: 70 °F (at 2:00 AM)
Average temperature yesterday: 73 °F

Past Weeks' High & Low Weather Summary

 TemperatureHumidityPressure
High84 °F (Mar 21, 2:00 PM)94% (Mar 16, 4:00 AM)30.12 "Hg (Mar 16, 4:00 AM)
Low66 °F (Mar 23, 10:00 PM)24% (Mar 13, 2:00 PM)29.80 "Hg (Mar 19, 12:00 AM)
Average73 °F71%29.96 "Hg
* Reported Mar 13 2:00 PM — Mar 28 2:00 PM, Riffa, Weather by CustomWeather, © 2015

Note: Actual official high and low records may vary slightly from our data, if they occured in-between our weather recording intervals... More about our weather records

Advertising

Riffa weather history for previous 24 hours

 ConditionsComfort  
Time TempWeatherWind HumidityBarometerVisibility
2:00 PM
Sat, Mar 28
79 °FPassing clouds.15 mph45%29.98 "HgN/A
1:00 PM79 °FPassing clouds.18 mph39%29.98 "HgN/A
12:00 PM79 °FPassing clouds.17 mph39%30.01 "HgN/A
11:00 AM77 °FSunny.16 mph47%30.04 "Hg10 mi
10:00 AM75 °FSunny.14 mph47%30.04 "Hg10 mi
9:00 AM73 °FSunny.15 mph57%30.07 "Hg10 mi
8:00 AM72 °FSunny.13 mph69%30.04 "Hg10 mi
7:00 AM70 °FSunny.12 mph78%30.01 "Hg5 mi
6:00 AM68 °FHaze.8 mph83%30.01 "Hg3 mi
5:00 AM70 °FHaze.10 mph78%29.98 "Hg2 mi
4:00 AM70 °FHaze.9 mph83%29.98 "Hg2 mi
3:00 AM70 °FHaze.10 mph88%29.98 "Hg2 mi
2:00 AM70 °FHaze.10 mph88%29.98 "Hg2 mi
1:00 AM70 °FHaze.9 mph88%30.01 "Hg2 mi
12:00 AM70 °FPassing clouds.9 mph88%30.01 "Hg3 mi
11:00 PM
Fri, Mar 27
70 °FPassing clouds.14 mph88%30.01 "Hg3 mi
10:00 PM72 °FPassing clouds.10 mph88%30.01 "Hg3 mi
9:00 PM72 °FPassing clouds.9 mph88%30.01 "Hg4 mi
8:00 PM72 °FPassing clouds.8 mph83%30.01 "Hg4 mi
7:00 PM72 °FClear.7 mph83%29.98 "Hg4 mi
6:00 PM73 °FPassing clouds.9 mph78%29.98 "Hg4 mi
5:00 PM73 °FSunny.13 mph78%29.95 "Hg10 mi
4:00 PM75 °FSunny.12 mph74%29.95 "Hg10 mi
3:00 PM77 °FPassing clouds.10 mph61%29.98 "HgN/A
Weather by CustomWeather, © 2015

See weather overviewHow to use our weather pages